Danville, IN

1:59 PM EDT on June 25, 2017 (GMT -0400)
Vermilion County

Weather History for KDNV - October, 2012

Change the Weather History Date:

Friday, October 19, 2012

  Actual Average (KLAF) Record (KLAF)
Temperature  
Mean Temperature 46 °F -  
Max Temperature 49 °F 59 °F 82 °F (1971)
Min Temperature 44 °F 40 °F 24 °F (1992)
Degree Days  
Heating Degree Days 18    
Moisture  
Dew Point 43 °F    
Average Humidity 89    
Maximum Humidity 94    
Minimum Humidity 79    
Precipitation  
Precipitation 0.42 in - - ()
Sea Level Pressure  
Sea Level Pressure 29.54 in    
Wind  
Wind Speed 12 mph (WSW)    
Max Wind Speed 18 mph    
Max Gust Speed 26 mph    
Visibility 8 miles    
Events Rain    
Averages and records for this station are not official NWS values.
T = Trace of Precipitation, MM = Missing Value Source: NWS Daily Summary

Daily Weather History Graph

Daily Weather History Graph

Search for Another Location

Airport or City:

Trip Planner

Search our weather history database for the weather conditions in past years. The results will help you decide how hot, cold, wet, or windy it might be!

Date:

Astronomy

Oct. 19, 2012 Rise Set
Actual Time 7:05 AM CDT 6:04 PM CDT
Civil Twilight 6:38 AM CDT 6:31 PM CDT
Nautical Twilight 6:06 AM CDT 7:03 PM CDT
Astronomical Twilight 5:35 AM CDT 7:34 PM CDT
Moon 11:48 AM CDT (10/19) 9:41 PM CDT (10/19)
Length of Visible Light 11h 53m
Length of Day
10h 58m
Waxing Crescent, 24% of the Moon is Illuminated
Oct 19
Waxing Crescent
Oct 21
First Quarter
Oct 29
Full
Nov 6
Last Quarter
Nov 13
New

Hourly Weather History & Observations

Time (CDT) Temp. Windchill Dew Point Humidity Pressure Visibility Wind Dir Wind Speed Gust Speed Precip Events Conditions
1:35 AM 44.6 °F 39.7 °F 41.0 °F 87% 29.50 in 10.0 mi SSW 9.2 mph - N/A Rain Light Rain
1:55 AM 44.8 °F 39.9 °F 41.9 °F 90% 29.50 in 10.0 mi SSW 9.2 mph - 0.01 in Rain Light Rain
2:15 AM 44.6 °F 39.7 °F 41.9 °F 90% 29.49 in 10.0 mi South 9.2 mph - 0.01 in Rain Rain
2:35 AM 44.6 °F 38.8 °F 41.9 °F 90% 29.49 in 10.0 mi South 11.5 mph - 0.01 in Rain Light Rain
2:55 AM 44.6 °F 39.2 °F 41.9 °F 90% 29.48 in 10.0 mi SSW 10.4 mph - 0.02 in Rain Light Rain
3:15 AM 44.6 °F 38.4 °F 42.1 °F 91% 29.48 in 10.0 mi South 12.7 mph - 0.01 in Rain Light Rain
3:35 AM 44.6 °F 39.7 °F 42.8 °F 93% 29.47 in 10.0 mi South 9.2 mph - N/A Rain Light Rain
3:55 AM 44.6 °F 38.8 °F 42.1 °F 91% 29.46 in 10.0 mi South 11.5 mph - 0.03 in Rain Light Rain
4:15 AM 44.6 °F 38.8 °F 42.3 °F 91% 29.46 in 7.0 mi South 11.5 mph - 0.02 in Rain Rain
4:35 AM 44.6 °F 38.8 °F 42.4 °F 92% 29.45 in 10.0 mi South 11.5 mph 18.4 mph 0.03 in Rain Light Rain
4:55 AM 44.6 °F 38.4 °F 42.8 °F 93% 29.45 in 10.0 mi South 12.7 mph 20.7 mph 0.05 in Rain Light Rain
5:15 AM 44.8 °F 38.0 °F 43.0 °F 93% 29.45 in 5.0 mi SSW 15.0 mph - 0.03 in Rain Rain
5:35 AM 45.0 °F 39.3 °F 43.3 °F 94% 29.45 in 5.0 mi SSW 11.5 mph - 0.05 in Rain Rain
5:55 AM 45.3 °F 38.7 °F 43.7 °F 94% 29.45 in 4.0 mi SSW 15.0 mph 20.7 mph 0.06 in Rain Light Rain
6:15 AM 45.5 °F 38.6 °F 43.7 °F 93% 29.46 in 3.0 mi SW 16.1 mph - N/A Rain Rain
6:35 AM 45.7 °F 38.8 °F 43.9 °F 93% 29.46 in 7.0 mi SW 16.1 mph 20.7 mph N/A   Overcast
6:55 AM 45.7 °F 40.2 °F 43.9 °F 93% 29.47 in 5.0 mi SW 11.5 mph 20.7 mph N/A   Overcast
7:15 AM 45.7 °F 39.5 °F 44.1 °F 94% 29.47 in 5.0 mi SW 13.8 mph 20.7 mph N/A Rain Light Rain
7:35 AM 46.4 °F 40.1 °F 44.6 °F 93% 29.47 in 3.0 mi SW 15.0 mph - N/A Rain Light Rain
7:55 AM 45.9 °F 39.4 °F 43.9 °F 93% 29.48 in 1.8 mi SW 15.0 mph - 0.02 in Rain Light Rain
8:15 AM 45.9 °F 40.4 °F 44.1 °F 93% 29.48 in 2.5 mi SW 11.5 mph 21.9 mph 0.01 in Rain Light Rain
8:35 AM 45.9 °F 39.4 °F 44.1 °F 93% 29.48 in 4.0 mi SW 15.0 mph - 0.01 in Rain Light Rain
8:55 AM 45.9 °F 39.1 °F 43.7 °F 92% 29.48 in 7.0 mi SW 16.1 mph 20.7 mph 0.01 in Rain Light Rain
9:15 AM 46.8 °F - 44.4 °F 92% 29.49 in 10.0 mi SW 13.8 mph - N/A   Overcast
9:35 AM 46.8 °F - 43.7 °F 89% 29.49 in 10.0 mi WSW 11.5 mph - N/A   Overcast
9:55 AM 47.3 °F - 44.4 °F 90% 29.49 in 10.0 mi WSW 13.8 mph - N/A   Overcast
10:15 AM 46.8 °F - 44.1 °F 90% 29.49 in 5.0 mi WSW 15.0 mph 18.4 mph N/A Rain Light Rain
10:35 AM 46.6 °F - 44.2 °F 92% 29.50 in 3.0 mi WSW 12.7 mph - N/A Rain Light Rain
10:55 AM 46.8 °F - 44.1 °F 90% 29.50 in 10.0 mi SW 12.7 mph - N/A Rain Light Rain
11:15 AM 47.3 °F - 44.2 °F 89% 29.51 in 10.0 mi WSW 15.0 mph - 0.01 in Rain Light Rain
11:35 AM 47.7 °F - 44.2 °F 88% 29.51 in 10.0 mi WSW 13.8 mph - 0.01 in   Overcast
11:55 AM 47.3 °F - 44.1 °F 88% 29.51 in 7.0 mi WSW 12.7 mph - 0.01 in   Overcast
12:15 PM 47.1 °F - 43.9 °F 88% 29.52 in 5.0 mi WSW 13.8 mph 18.4 mph N/A   Light Drizzle
12:35 PM 47.5 °F - 44.2 °F 89% 29.51 in 7.0 mi West 15.0 mph 20.7 mph N/A   Overcast
12:55 PM 47.7 °F - 45.1 °F 91% 29.51 in 4.0 mi WSW 11.5 mph - N/A   Light Drizzle
1:15 PM 48.2 °F - 45.3 °F 90% 29.51 in 7.0 mi West 10.4 mph 17.3 mph N/A Rain Light Rain
1:35 PM 48.4 °F - 44.6 °F 87% 29.52 in 10.0 mi West 13.8 mph 20.7 mph N/A   Overcast
1:55 PM 48.2 °F - 44.6 °F 87% 29.53 in 10.0 mi WSW 13.8 mph - N/A   Unknown
2:15 PM 48.6 °F - 44.6 °F 86% 29.53 in 10.0 mi WSW 15.0 mph 20.7 mph N/A   Overcast
2:35 PM 49.1 °F - 43.7 °F 82% 29.54 in 10.0 mi WSW 11.5 mph 21.9 mph N/A   Overcast
2:55 PM 49.1 °F - 43.0 °F 79% 29.54 in 7.0 mi West 18.4 mph 26.5 mph N/A   Overcast
3:15 PM 48.2 °F - 43.5 °F 84% 29.55 in 7.0 mi West 16.1 mph 20.7 mph N/A Rain Light Rain
3:35 PM 48.2 °F - 44.6 °F 87% 29.55 in 10.0 mi West 12.7 mph - N/A   Mostly Cloudy
3:55 PM 48.0 °F - 43.7 °F 85% 29.56 in 7.0 mi West 16.1 mph 24.2 mph N/A   Overcast
4:15 PM 47.3 °F - 43.3 °F 86% 29.57 in 7.0 mi WSW 15.0 mph 20.7 mph N/A Rain Light Rain
4:35 PM 47.3 °F - 43.5 °F 87% 29.58 in 10.0 mi West 11.5 mph 17.3 mph N/A   Unknown
4:55 PM 47.7 °F - 43.9 °F 87% 29.59 in 7.0 mi WSW 11.5 mph - N/A   Overcast
5:15 PM 47.7 °F - 44.2 °F 88% 29.59 in 7.0 mi WSW 10.4 mph - N/A Rain Light Rain
5:35 PM 47.5 °F - 44.1 °F 88% 29.60 in 10.0 mi WSW 9.2 mph - N/A   Unknown
5:55 PM 47.8 °F - 44.2 °F 87% 29.60 in 10.0 mi WSW 9.2 mph - N/A   Unknown
6:15 PM 47.8 °F - 43.7 °F 86% 29.61 in 10.0 mi WSW 12.7 mph 19.6 mph N/A   Unknown
6:35 PM 48.2 °F - 42.8 °F 82% 29.62 in 10.0 mi West 12.7 mph 16.1 mph N/A   Unknown
6:55 PM 48.2 °F - 43.2 °F 83% 29.62 in 10.0 mi WSW 11.5 mph - N/A   Unknown
7:15 PM 47.8 °F - 42.6 °F 82% 29.63 in 10.0 mi West 11.5 mph 16.1 mph N/A   Unknown
7:35 PM 47.5 °F - 42.3 °F 82% 29.63 in 10.0 mi West 11.5 mph - N/A   Unknown
7:55 PM 47.7 °F - 42.6 °F 83% 29.64 in 10.0 mi WSW 8.1 mph - N/A   Overcast
8:15 PM 47.7 °F - 43.0 °F 84% 29.64 in 10.0 mi WSW 9.2 mph - N/A   Unknown
8:35 PM 47.7 °F - 43.0 °F 84% 29.65 in 10.0 mi WSW 10.4 mph - N/A   Overcast
8:55 PM 48.2 °F - 42.8 °F 82% 29.65 in 10.0 mi WSW 9.2 mph - N/A   Overcast
9:15 PM 47.7 °F - 43.2 °F 84% 29.65 in 10.0 mi WSW 10.4 mph - N/A   Overcast
9:35 PM 47.8 °F - 43.2 °F 84% 29.65 in 10.0 mi WSW 10.4 mph - N/A   Overcast
9:55 PM 47.8 °F - 43.2 °F 84% 29.65 in 10.0 mi WSW 11.5 mph - N/A Rain Light Rain
10:15 PM 47.8 °F - 43.7 °F 86% 29.66 in 10.0 mi WSW 13.8 mph 20.7 mph N/A Rain Light Rain
10:35 PM 46.9 °F - 44.1 °F 90% 29.68 in 7.0 mi West 8.1 mph - 0.06 in Rain Heavy Rain
10:55 PM 46.8 °F - 44.6 °F 92% 29.68 in 7.0 mi West 11.5 mph 17.3 mph 0.11 in Rain Rain
11:15 PM 46.4 °F 41.5 °F 44.6 °F 93% 29.68 in 7.0 mi NW 10.4 mph - N/A Rain Heavy Rain
11:35 PM 45.5 °F 41.3 °F 42.3 °F 88% 29.68 in 10.0 mi WNW 8.1 mph - 0.07 in Rain Rain
11:55 PM 45.0 °F 42.6 °F 42.4 °F 91% 29.68 in 10.0 mi WNW 4.6 mph - 0.10 in Rain Rain